Time,TemperatureF,DewpointF,PressureIn,WindDirection,WindDirectionDegrees,WindSpeedMPH,WindSpeedGustMPH,Humidity,HourlyPrecipIn,Conditions,Clouds,dailyrainin,SoftwareType,DateUTC
2013-04-18 00:02:00,34.9,7.3,30.02,WSW,254,0.0,0.0,31,0.00,,FEW200,0.00,VWS V14.01,2013-04-18 07:02:00,
2013-04-18 00:07:00,34.7,7.9,30.02,WSW,254,0.0,0.0,32,0.00,,FEW200,0.00,VWS V14.01,2013-04-18 07:07:00,
2013-04-18 00:12:00,34.5,7.7,30.02,WSW,254,0.0,0.0,32,0.00,,FEW200,0.00,VWS V14.01,2013-04-18 07:12:00,
2013-04-18 00:17:00,34.5,7.7,30.02,WSW,254,0.0,0.0,32,0.00,,FEW200,0.00,VWS V14.01,2013-04-18 07:17:00,
2013-04-18 00:22:00,34.5,7.7,30.02,WSW,254,0.0,0.0,32,0.00,,FEW200,0.00,VWS V14.01,2013-04-18 07:22:00,
2013-04-18 00:27:00,34.3,7.6,30.02,WSW,254,0.0,0.0,32,0.00,,FEW200,0.00,VWS V14.01,2013-04-18 07:27:00,
2013-04-18 00:31:00,34.2,7.4,30.02,WSW,254,0.0,0.0,32,0.00,,FEW200,0.00,VWS V14.01,2013-04-18 07:31:00,
2013-04-18 00:37:00,33.8,7.1,30.02,WSW,254,0.0,0.0,32,0.00,,FEW200,0.00,VWS V14.01,2013-04-18 07:37:00,
2013-04-18 00:42:00,33.6,7.6,30.02,WSW,254,0.0,0.0,33,0.00,,FEW200,0.00,VWS V14.01,2013-04-18 07:42:00,
2013-04-18 00:47:00,33.6,7.6,30.02,WSW,254,0.0,0.0,33,0.00,,FEW200,0.00,VWS V14.01,2013-04-18 07:47:00,
2013-04-18 00:51:00,33.8,7.1,30.02,SW,224,0.0,0.0,32,0.00,,FEW200,0.00,VWS V14.01,2013-04-18 07:51:00,
2013-04-18 00:57:00,33.8,7.1,30.02,SW,224,0.0,0.0,32,0.00,,FEW200,0.00,VWS V14.01,2013-04-18 07:57:00,
2013-04-18 01:02:00,34.3,7.6,30.02,SW,224,0.0,0.0,32,0.00,,FEW120,0.00,VWS V14.01,2013-04-18 08:02:00,
2013-04-18 01:07:00,34.5,7.0,30.02,SW,224,0.0,0.0,31,0.00,,FEW120,0.00,VWS V14.01,2013-04-18 08:07:00,
2013-04-18 01:12:00,34.7,7.2,30.02,SSW,210,0.0,0.0,31,0.00,,FEW120,0.00,VWS V14.01,2013-04-18 08:12:00,
2013-04-18 01:17:00,34.7,7.2,30.02,SSW,210,0.0,0.0,31,0.00,,FEW120,0.00,VWS V14.01,2013-04-18 08:17:00,
2013-04-18 01:22:00,34.9,7.3,30.02,SSW,210,0.0,0.0,31,0.00,,FEW120,0.00,VWS V14.01,2013-04-18 08:22:00,
2013-04-18 01:27:00,34.9,7.3,30.02,SSW,210,0.0,0.0,31,0.00,,FEW120,0.00,VWS V14.01,2013-04-18 08:27:00,
2013-04-18 01:32:00,34.5,7.0,30.02,SSW,210,3.1,3.1,31,0.00,,FEW120,0.00,VWS V14.01,2013-04-18 08:32:00,
2013-04-18 01:37:00,34.5,7.0,30.02,SSW,210,0.0,0.0,31,0.00,,FEW120,0.00,VWS V14.01,2013-04-18 08:37:00,
2013-04-18 01:41:00,34.3,6.9,29.99,SW,214,2.7,2.7,31,0.00,,FEW120,0.00,VWS V14.01,2013-04-18 08:41:00,
2013-04-18 01:46:00,34.5,7.0,29.99,SSW,212,2.2,2.2,31,0.00,,FEW120,0.00,VWS V14.01,2013-04-18 08:46:00,
2013-04-18 01:52:00,34.5,7.0,29.99,SW,218,3.1,3.1,31,0.00,,FEW120,0.00,VWS V14.01,2013-04-18 08:52:00,
2013-04-18 01:57:00,34.7,7.2,29.99,SW,236,3.1,3.6,31,0.00,,FEW120,0.00,VWS V14.01,2013-04-18 08:57:00,
2013-04-18 02:02:00,35.1,7.5,29.99,SW,223,0.0,0.0,31,0.00,,CLR,0.00,VWS V14.01,2013-04-18 09:02:00,
2013-04-18 02:07:00,35.1,7.5,29.99,SW,223,2.7,2.7,31,0.00,,CLR,0.00,VWS V14.01,2013-04-18 09:07:00,
2013-04-18 02:12:00,35.1,7.5,29.99,SW,226,0.0,0.0,31,0.00,,CLR,0.00,VWS V14.01,2013-04-18 09:12:00,
2013-04-18 02:17:00,35.1,7.5,29.99,SW,226,0.0,0.0,31,0.00,,CLR,0.00,VWS V14.01,2013-04-18 09:17:00,
2013-04-18 02:22:00,35.1,7.5,29.99,SW,226,0.0,0.0,31,0.00,,CLR,0.00,VWS V14.01,2013-04-18 09:22:00,
2013-04-18 02:27:00,34.9,7.3,29.99,SW,226,0.0,0.0,31,0.00,,CLR,0.00,VWS V14.01,2013-04-18 09:27:00,
2013-04-18 02:32:00,34.3,6.9,29.99,SW,226,0.0,0.0,31,0.00,,CLR,0.00,VWS V14.01,2013-04-18 09:32:00,
2013-04-18 02:37:00,34.3,6.9,29.99,SW,226,0.0,0.0,31,0.00,,CLR,0.00,VWS V14.01,2013-04-18 09:37:00,
2013-04-18 02:42:00,34.0,6.5,29.99,SW,224,0.0,0.0,31,0.00,,CLR,0.00,VWS V14.01,2013-04-18 09:42:00,
2013-04-18 02:47:00,34.0,6.5,29.99,SW,227,2.2,2.2,31,0.00,,CLR,0.00,VWS V14.01,2013-04-18 09:47:00,
2013-04-18 02:52:00,33.8,6.4,29.99,SW,226,0.0,2.7,31,0.00,,CLR,0.00,VWS V14.01,2013-04-18 09:52:00,
2013-04-18 02:57:00,33.4,6.1,29.99,SW,226,0.0,0.0,31,0.00,,CLR,0.00,VWS V14.01,2013-04-18 09:57:00,
2013-04-18 03:01:00,33.3,5.9,29.99,SW,225,0.0,0.0,31,0.00,,FEW090,0.00,VWS V14.01,2013-04-18 10:01:00,
2013-04-18 03:06:00,33.4,6.1,29.99,SW,225,2.7,2.7,31,0.00,,FEW090,0.00,VWS V14.01,2013-04-18 10:06:00,
2013-04-18 03:11:00,33.6,6.2,29.99,SW,225,0.0,0.0,31,0.00,,FEW090,0.00,VWS V14.01,2013-04-18 10:11:00,
2013-04-18 03:16:00,33.1,5.8,29.99,SW,224,0.0,2.7,31,0.00,,FEW090,0.00,VWS V14.01,2013-04-18 10:16:00,
2013-04-18 03:21:00,33.1,5.8,29.99,SSW,213,0.0,5.8,31,0.00,,FEW090,0.00,VWS V14.01,2013-04-18 10:21:00,
2013-04-18 03:26:00,33.4,6.1,29.99,WSW,240,2.7,3.1,31,0.00,,FEW090,0.00,VWS V14.01,2013-04-18 10:26:00,
2013-04-18 03:31:00,33.8,6.4,29.99,WSW,256,2.7,3.1,31,0.00,,FEW090,0.00,VWS V14.01,2013-04-18 10:31:00,
2013-04-18 03:36:00,33.6,6.2,29.99,WSW,256,2.2,2.7,31,0.00,,FEW090,0.00,VWS V14.01,2013-04-18 10:36:00,
2013-04-18 03:41:00,33.6,6.2,29.99,WSW,256,0.0,0.0,31,0.00,,FEW090,0.00,VWS V14.01,2013-04-18 10:41:00,
2013-04-18 03:46:00,33.3,5.9,29.99,WSW,256,0.0,0.0,31,0.00,,FEW090,0.00,VWS V14.01,2013-04-18 10:46:00,
2013-04-18 03:51:00,33.6,6.2,29.99,WSW,256,2.2,3.1,31,0.00,,FEW090,0.00,VWS V14.01,2013-04-18 10:51:00,
2013-04-18 03:56:00,33.6,6.2,29.99,WSW,256,0.0,0.0,31,0.00,,FEW090,0.00,VWS V14.01,2013-04-18 10:56:00,
2013-04-18 04:01:00,33.6,6.2,29.99,WSW,256,2.7,2.7,31,0.00,,CLR,0.00,VWS V14.01,2013-04-18 11:01:00,
2013-04-18 04:06:00,33.1,6.4,29.99,WSW,256,0.0,0.0,32,0.00,,CLR,0.00,VWS V14.01,2013-04-18 11:06:00,
2013-04-18 04:11:00,32.5,6.0,29.99,WSW,256,2.7,2.7,32,0.00,,CLR,0.00,VWS V14.01,2013-04-18 11:11:00,
2013-04-18 04:16:00,32.7,6.1,29.99,WSW,254,3.6,3.6,32,0.00,,CLR,0.00,VWS V14.01,2013-04-18 11:16:00,
2013-04-18 04:21:00,32.9,6.3,29.99,WSW,254,0.0,0.0,32,0.00,,CLR,0.00,VWS V14.01,2013-04-18 11:21:00,
2013-04-18 04:26:00,32.7,6.1,29.99,WSW,253,3.6,3.6,32,0.00,,CLR,0.00,VWS V14.01,2013-04-18 11:26:00,
2013-04-18 04:31:00,32.4,5.8,29.99,WSW,253,2.7,3.1,32,0.00,,CLR,0.00,VWS V14.01,2013-04-18 11:31:00,
2013-04-18 04:36:00,32.2,6.3,30.02,WSW,252,0.0,3.1,33,0.00,,CLR,0.00,VWS V14.01,2013-04-18 11:36:00,
2013-04-18 04:41:00,31.8,6.7,30.02,SW,215,0.0,0.0,34,0.00,,CLR,0.00,VWS V14.01,2013-04-18 11:41:00,
2013-04-18 04:46:00,31.3,6.8,30.02,SW,215,0.0,0.0,35,0.00,,CLR,0.00,VWS V14.01,2013-04-18 11:46:00,
2013-04-18 04:51:00,30.9,7.1,30.02,SW,215,0.0,0.0,36,0.00,,CLR,0.00,VWS V14.01,2013-04-18 11:51:00,
2013-04-18 04:56:00,30.4,7.2,29.99,SW,215,0.0,0.0,37,0.00,,CLR,0.00,VWS V14.01,2013-04-18 11:56:00,
2013-04-18 05:01:00,30.0,8.1,29.99,SW,215,0.0,0.0,39,0.00,,SCT190,0.00,VWS V14.01,2013-04-18 12:01:00,
2013-04-18 05:06:00,29.5,8.1,29.99,SW,215,0.0,0.0,40,0.00,,SCT190,0.00,VWS V14.01,2013-04-18 12:06:00,
2013-04-18 05:11:00,29.5,8.7,30.02,SW,215,0.0,0.0,41,0.00,,SCT190,0.00,VWS V14.01,2013-04-18 12:11:00,
2013-04-18 05:16:00,29.7,8.9,30.02,SW,215,0.0,0.0,41,0.00,,SCT190,0.00,VWS V14.01,2013-04-18 12:16:00,
2013-04-18 05:21:00,29.8,9.6,30.02,SW,215,2.2,2.2,42,0.00,,SCT190,0.00,VWS V14.01,2013-04-18 12:21:00,
2013-04-18 05:26:00,30.0,9.7,30.02,SW,215,2.7,2.7,42,0.00,,SCT190,0.00,VWS V14.01,2013-04-18 12:26:00,
2013-04-18 05:31:00,30.2,9.9,30.02,SW,215,0.0,0.0,42,0.00,,SCT190,0.00,VWS V14.01,2013-04-18 12:31:00,
2013-04-18 05:36:00,30.2,9.9,30.02,SW,215,0.0,0.0,42,0.00,,SCT190,0.00,VWS V14.01,2013-04-18 12:36:00,
2013-04-18 05:41:00,30.0,9.7,30.02,SW,215,0.0,0.0,42,0.00,,SCT190,0.00,VWS V14.01,2013-04-18 12:41:00,
2013-04-18 05:46:00,29.7,9.4,30.02,SW,215,0.0,0.0,42,0.00,,SCT190,0.00,VWS V14.01,2013-04-18 12:46:00,
2013-04-18 05:51:00,29.1,8.9,30.02,SW,215,0.0,0.0,42,0.00,,SCT190,0.00,VWS V14.01,2013-04-18 12:51:00,
2013-04-18 05:56:00,28.6,8.4,30.02,SW,215,0.0,0.0,42,0.00,,SCT190,0.00,VWS V14.01,2013-04-18 12:56:00,
2013-04-18 06:01:00,28.2,9.1,30.02,SW,215,0.0,0.0,44,0.00,,FEW140,0.00,VWS V14.01,2013-04-18 13:01:00,
2013-04-18 06:06:00,27.9,8.8,30.02,SW,215,0.0,0.0,44,0.00,,FEW140,0.00,VWS V14.01,2013-04-18 13:06:00,
2013-04-18 06:11:00,28.0,9.9,30.02,SW,215,3.1,3.1,46,0.00,,FEW140,0.00,VWS V14.01,2013-04-18 13:11:00,
2013-04-18 06:16:00,28.6,10.4,30.02,SW,215,0.0,0.0,46,0.00,,FEW140,0.00,VWS V14.01,2013-04-18 13:16:00,
2013-04-18 06:21:00,28.9,10.8,30.02,SW,215,2.2,2.2,46,0.00,,FEW140,0.00,VWS V14.01,2013-04-18 13:21:00,
2013-04-18 06:26:00,29.5,10.8,30.02,SW,215,0.0,0.0,45,0.00,,FEW140,0.00,VWS V14.01,2013-04-18 13:26:00,
2013-04-18 06:31:00,30.0,11.3,30.02,SW,215,0.0,0.0,45,0.00,,FEW140,0.00,VWS V14.01,2013-04-18 13:31:00,
2013-04-18 06:36:00,30.6,11.2,30.02,SW,215,0.0,0.0,44,0.00,,FEW140,0.00,VWS V14.01,2013-04-18 13:36:00,
2013-04-18 06:41:00,31.1,11.8,30.02,SW,215,2.2,2.2,44,0.00,,FEW140,0.00,VWS V14.01,2013-04-18 13:41:00,
2013-04-18 06:46:00,31.5,12.1,30.02,SW,215,0.0,0.0,44,0.00,,FEW140,0.00,VWS V14.01,2013-04-18 13:46:00,
2013-04-18 06:51:00,32.0,12.6,30.02,SW,215,0.0,0.0,44,0.00,,FEW140,0.00,VWS V14.01,2013-04-18 13:51:00,
2013-04-18 06:56:00,32.4,12.9,30.02,SW,214,0.0,0.0,44,0.00,,FEW140,0.00,VWS V14.01,2013-04-18 13:56:00,
2013-04-18 07:01:00,32.7,12.7,30.02,SSW,213,2.7,2.7,43,0.00,,FEW120,0.00,VWS V14.01,2013-04-18 14:01:00,
2013-04-18 07:06:00,33.3,13.2,30.02,SSW,212,0.0,0.0,43,0.00,,FEW120,0.00,VWS V14.01,2013-04-18 14:06:00,
2013-04-18 07:11:00,34.0,13.9,30.02,SSW,212,3.1,3.1,43,0.00,,FEW120,0.00,VWS V14.01,2013-04-18 14:11:00,
2013-04-18 07:16:00,34.5,13.8,30.02,SSW,208,0.0,0.0,42,0.00,,FEW120,0.00,VWS V14.01,2013-04-18 14:16:00,
2013-04-18 07:21:00,35.1,14.3,30.02,SSW,206,0.0,0.0,42,0.00,,FEW120,0.00,VWS V14.01,2013-04-18 14:21:00,
2013-04-18 07:26:00,35.6,14.2,30.02,SSW,206,2.7,3.1,41,0.00,,FEW120,0.00,VWS V14.01,2013-04-18 14:26:00,
2013-04-18 07:31:00,36.0,14.6,30.02,ENE,69,2.2,3.1,41,0.00,,FEW120,0.00,VWS V14.01,2013-04-18 14:31:00,
2013-04-18 07:36:00,36.3,14.9,30.02,ENE,68,0.0,0.0,41,0.00,,FEW120,0.00,VWS V14.01,2013-04-18 14:36:00,
2013-04-18 07:41:00,37.0,15.0,30.02,West,271,6.3,7.6,40,0.00,,FEW120,0.00,VWS V14.01,2013-04-18 14:41:00,
2013-04-18 07:46:00,38.5,15.1,30.02,SW,230,8.3,8.3,38,0.00,,FEW120,0.00,VWS V14.01,2013-04-18 14:46:00,
2013-04-18 07:51:00,39.6,14.2,30.02,WSW,257,5.4,5.4,35,0.00,,FEW120,0.00,VWS V14.01,2013-04-18 14:51:00,
2013-04-18 07:56:00,40.3,15.5,30.02,WSW,237,5.8,5.8,36,0.00,,FEW120,0.00,VWS V14.01,2013-04-18 14:56:00,
2013-04-18 08:01:00,41.2,15.0,30.02,SW,235,5.8,6.3,34,0.00,,FEW200,0.00,VWS V14.01,2013-04-18 15:01:00,
2013-04-18 08:06:00,42.3,15.2,30.02,SSW,205,6.3,6.3,33,0.00,,FEW200,0.00,VWS V14.01,2013-04-18 15:06:00,
2013-04-18 08:11:00,43.2,15.3,30.02,WSW,245,10.1,10.1,32,0.00,,FEW200,0.00,VWS V14.01,2013-04-18 15:11:00,
2013-04-18 08:16:00,44.1,16.1,30.02,West,264,6.3,8.1,32,0.00,,FEW200,0.00,VWS V14.01,2013-04-18 15:16:00,
2013-04-18 08:21:00,44.8,16.0,30.02,West,265,7.6,7.6,31,0.00,,FEW200,0.00,VWS V14.01,2013-04-18 15:21:00,
2013-04-18 08:26:00,45.5,16.6,30.02,WSW,240,8.7,8.7,31,0.00,,FEW200,0.00,VWS V14.01,2013-04-18 15:26:00,
2013-04-18 08:31:00,46.2,17.3,30.02,West,271,5.8,5.8,31,0.00,,FEW200,0.00,VWS V14.01,2013-04-18 15:31:00,
2013-04-18 08:36:00,47.1,17.3,30.02,SW,232,6.3,8.1,30,0.00,,FEW200,0.00,VWS V14.01,2013-04-18 15:36:00,
2013-04-18 08:41:00,47.5,17.6,30.02,WSW,249,7.6,7.6,30,0.00,,FEW200,0.00,VWS V14.01,2013-04-18 15:41:00,
2013-04-18 08:46:00,47.5,17.6,30.02,WSW,258,4.0,4.0,30,0.00,,FEW200,0.00,VWS V14.01,2013-04-18 15:46:00,
2013-04-18 08:51:00,48.0,18.1,30.02,SW,222,6.3,6.3,30,0.00,,FEW200,0.00,VWS V14.01,2013-04-18 15:51:00,
2013-04-18 08:56:00,48.7,18.7,30.02,SW,220,5.4,5.8,30,0.00,,FEW200,0.00,VWS V14.01,2013-04-18 15:56:00,
2013-04-18 09:01:00,49.5,18.5,30.02,WSW,251,5.8,5.8,29,0.00,,SCT200,0.00,VWS V14.01,2013-04-18 16:01:00,
2013-04-18 09:06:00,49.8,18.9,30.02,SW,217,8.1,8.1,29,0.00,,SCT200,0.00,VWS V14.01,2013-04-18 16:06:00,
2013-04-18 09:11:00,50.4,18.5,30.02,West,259,10.5,11.9,28,0.00,,SCT200,0.00,VWS V14.01,2013-04-18 16:11:00,
2013-04-18 09:16:00,50.2,19.2,30.02,West,274,8.3,8.3,29,0.00,,SCT200,0.00,VWS V14.01,2013-04-18 16:16:00,
2013-04-18 09:21:00,50.2,18.4,30.02,SSW,213,10.1,12.3,28,0.00,,SCT200,0.00,VWS V14.01,2013-04-18 16:21:00,
2013-04-18 09:26:00,50.5,18.7,30.02,SW,217,6.3,10.1,28,0.00,,SCT200,0.00,VWS V14.01,2013-04-18 16:26:00,
2013-04-18 09:31:00,50.9,19.0,30.02,WSW,249,7.6,7.6,28,0.00,,SCT200,0.00,VWS V14.01,2013-04-18 16:31:00,
2013-04-18 09:36:00,51.3,20.1,30.02,West,263,8.7,8.7,29,0.00,,SCT200,0.00,VWS V14.01,2013-04-18 16:36:00,
2013-04-18 09:41:00,51.4,19.4,30.02,WSW,238,10.5,13.2,28,0.00,,SCT200,0.00,VWS V14.01,2013-04-18 16:41:00,
2013-04-18 09:46:00,51.3,19.3,30.02,SW,233,10.1,11.0,28,0.00,,SCT200,0.00,VWS V14.01,2013-04-18 16:46:00,
2013-04-18 09:51:00,51.4,19.4,30.02,SW,225,7.6,11.9,28,0.00,,SCT200,0.00,VWS V14.01,2013-04-18 16:51:00,
2013-04-18 09:56:00,52.0,19.9,30.02,SW,235,8.3,10.1,28,0.00,,SCT200,0.00,VWS V14.01,2013-04-18 16:56:00,
2013-04-18 10:01:00,52.7,20.5,30.02,WSW,246,10.1,11.0,28,0.00,,BKN200,0.00,VWS V14.01,2013-04-18 17:01:00,
2013-04-18 10:06:00,52.9,20.7,30.02,West,274,10.5,10.5,28,0.00,,BKN200,0.00,VWS V14.01,2013-04-18 17:06:00,
2013-04-18 10:11:00,53.4,21.1,30.02,WSW,250,8.7,10.5,28,0.00,,BKN200,0.00,VWS V14.01,2013-04-18 17:11:00,
2013-04-18 10:16:00,53.8,20.6,30.02,SSW,203,7.2,7.2,27,0.00,,BKN200,0.00,VWS V14.01,2013-04-18 17:16:00,
2013-04-18 10:21:00,54.1,20.9,30.02,WSW,254,8.7,8.7,27,0.00,,BKN200,0.00,VWS V14.01,2013-04-18 17:21:00,
2013-04-18 10:27:00,54.5,21.2,30.02,SSW,210,5.8,8.1,27,0.00,,BKN200,0.00,VWS V14.01,2013-04-18 17:27:00,
2013-04-18 10:32:00,54.7,21.4,30.02,WSW,238,10.1,10.1,27,0.00,,BKN200,0.00,VWS V14.01,2013-04-18 17:32:00,
2013-04-18 10:37:00,54.9,21.5,30.02,WSW,237,8.1,10.5,27,0.00,,BKN200,0.00,VWS V14.01,2013-04-18 17:37:00,
2013-04-18 10:41:00,55.4,22.0,30.02,WSW,249,7.6,11.0,27,0.00,,BKN200,0.00,VWS V14.01,2013-04-18 17:41:00,
2013-04-18 10:46:00,55.4,21.1,30.02,WSW,253,8.7,13.2,26,0.00,,BKN200,0.00,VWS V14.01,2013-04-18 17:46:00,
2013-04-18 10:51:00,55.2,21.0,30.02,West,266,5.4,5.4,26,0.00,,BKN200,0.00,VWS V14.01,2013-04-18 17:51:00,
2013-04-18 10:56:00,55.6,21.3,30.02,West,272,7.6,8.1,26,0.00,,BKN200,0.00,VWS V14.01,2013-04-18 17:56:00,
2013-04-18 11:01:00,55.8,22.3,30.02,WSW,251,8.1,8.1,27,0.00,,BKN200,0.00,VWS V14.01,2013-04-18 18:01:00,
2013-04-18 11:06:00,56.1,21.7,30.02,NW,307,5.8,5.8,26,0.00,,BKN200,0.00,VWS V14.01,2013-04-18 18:06:00,
2013-04-18 11:11:00,56.3,21.9,30.02,West,270,8.3,8.7,26,0.00,,BKN200,0.00,VWS V14.01,2013-04-18 18:11:00,
2013-04-18 11:16:00,56.5,22.0,30.02,West,260,6.3,10.5,26,0.00,,BKN200,0.00,VWS V14.01,2013-04-18 18:16:00,
2013-04-18 11:21:00,56.8,22.3,30.02,WSW,250,8.3,8.3,26,0.00,,BKN200,0.00,VWS V14.01,2013-04-18 18:21:00,
2013-04-18 11:26:00,57.0,22.5,30.02,South,182,8.1,8.1,26,0.00,,BKN200,0.00,VWS V14.01,2013-04-18 18:26:00,
2013-04-18 11:31:00,56.8,21.4,30.02,West,273,2.7,4.0,25,0.00,,BKN200,0.00,VWS V14.01,2013-04-18 18:31:00,
2013-04-18 11:36:00,55.9,20.6,30.02,West,276,4.9,4.9,25,0.00,,BKN200,0.00,VWS V14.01,2013-04-18 18:36:00,
2013-04-18 11:41:00,55.0,20.8,30.02,WNW,282,2.7,3.1,26,0.00,,BKN200,0.00,VWS V14.01,2013-04-18 18:41:00,
2013-04-18 11:46:00,54.5,21.2,30.02,WSW,237,10.1,10.1,27,0.00,,BKN200,0.00,VWS V14.01,2013-04-18 18:46:00,
2013-04-18 11:51:00,56.1,21.7,29.99,WSW,238,8.3,11.4,26,0.00,,BKN200,0.00,VWS V14.01,2013-04-18 18:51:00,
2013-04-18 11:56:00,56.7,22.2,29.99,WSW,238,8.1,10.1,26,0.00,,BKN200,0.00,VWS V14.01,2013-04-18 18:56:00,
2013-04-18 12:01:00,56.5,21.1,29.99,NNE,23,3.1,6.3,25,0.00,,BKN200,0.00,VWS V14.01,2013-04-18 19:01:00,
2013-04-18 12:06:00,55.9,20.6,29.99,West,260,3.1,3.1,25,0.00,,BKN200,0.00,VWS V14.01,2013-04-18 19:06:00,
2013-04-18 12:11:00,54.9,20.6,29.99,NW,309,3.1,3.6,26,0.00,,BKN200,0.00,VWS V14.01,2013-04-18 19:11:00,
2013-04-18 12:16:00,54.5,20.3,29.99,NW,313,5.4,5.4,26,0.00,,BKN200,0.00,VWS V14.01,2013-04-18 19:16:00,
2013-04-18 12:21:00,56.1,21.7,29.99,West,272,11.0,13.2,26,0.00,,BKN200,0.00,VWS V14.01,2013-04-18 19:21:00,
2013-04-18 12:26:00,57.0,22.5,29.99,West,269,4.9,6.3,26,0.00,,BKN200,0.00,VWS V14.01,2013-04-18 19:26:00,
2013-04-18 12:31:00,57.9,23.3,29.99,West,265,10.1,11.9,26,0.00,,BKN200,0.00,VWS V14.01,2013-04-18 19:31:00,
2013-04-18 12:36:00,57.4,21.9,29.99,West,271,4.5,4.9,25,0.00,,BKN200,0.00,VWS V14.01,2013-04-18 19:36:00,
2013-04-18 12:41:00,56.5,21.1,29.99,West,279,4.9,5.4,25,0.00,,BKN200,0.00,VWS V14.01,2013-04-18 19:41:00,
2013-04-18 12:47:00,55.8,20.5,29.99,WNW,301,3.6,3.6,25,0.00,,BKN200,0.00,VWS V14.01,2013-04-18 19:47:00,
2013-04-18 12:52:00,55.4,20.2,29.99,WSW,239,5.4,5.4,25,0.00,,BKN200,0.00,VWS V14.01,2013-04-18 19:52:00,
2013-04-18 12:57:00,55.6,20.3,29.99,West,265,2.7,2.7,25,0.00,,BKN200,0.00,VWS V14.01,2013-04-18 19:57:00,
2013-04-18 13:02:00,55.4,20.2,29.99,West,268,4.0,5.4,25,0.00,,BKN200,0.00,VWS V14.01,2013-04-18 20:02:00,
2013-04-18 13:07:00,55.6,20.3,29.99,West,273,4.9,4.9,25,0.00,,BKN200,0.00,VWS V14.01,2013-04-18 20:07:00,
2013-04-18 13:12:00,56.3,21.0,29.99,West,262,4.0,4.0,25,0.00,,BKN200,0.00,VWS V14.01,2013-04-18 20:12:00,
2013-04-18 13:17:00,56.7,21.3,29.99,SW,224,7.6,7.6,25,0.00,,BKN200,0.00,VWS V14.01,2013-04-18 20:17:00,
2013-04-18 13:22:00,56.7,21.3,29.99,WSW,253,8.1,8.3,25,0.00,,BKN200,0.00,VWS V14.01,2013-04-18 20:22:00,
2013-04-18 13:27:00,56.5,21.1,29.99,WSW,246,6.3,8.1,25,0.00,,BKN200,0.00,VWS V14.01,2013-04-18 20:27:00,
2013-04-18 13:32:00,56.7,21.3,29.99,West,270,3.6,6.3,25,0.00,,BKN200,0.00,VWS V14.01,2013-04-18 20:32:00,
2013-04-18 13:37:00,56.7,21.3,29.99,West,262,8.3,11.0,25,0.00,,BKN200,0.00,VWS V14.01,2013-04-18 20:37:00,
2013-04-18 13:42:00,56.8,21.4,29.99,West,274,8.7,12.3,25,0.00,,BKN200,0.00,VWS V14.01,2013-04-18 20:42:00,
2013-04-18 13:47:00,57.0,21.6,29.99,WSW,250,8.1,8.1,25,0.00,,BKN200,0.00,VWS V14.01,2013-04-18 20:47:00,
2013-04-18 13:52:00,57.4,21.9,29.99,WNW,300,3.6,3.6,25,0.00,,BKN200,0.00,VWS V14.01,2013-04-18 20:52:00,
2013-04-18 13:57:00,57.2,20.8,29.99,NNW,331,3.6,3.6,24,0.00,,BKN200,0.00,VWS V14.01,2013-04-18 20:57:00,
2013-04-18 14:02:00,56.8,21.4,29.99,West,267,8.7,11.0,25,0.00,,BKN200,0.00,VWS V14.01,2013-04-18 21:02:00,
2013-04-18 14:07:00,57.4,21.9,29.99,SW,226,5.8,8.1,25,0.00,,BKN200,0.00,VWS V14.01,2013-04-18 21:07:00,
2013-04-18 14:12:00,57.6,22.0,29.99,WSW,250,3.6,3.6,25,0.00,,BKN200,0.00,VWS V14.01,2013-04-18 21:12:00,
2013-04-18 14:17:00,57.0,21.6,29.99,WSW,256,5.4,5.4,25,0.00,,BKN200,0.00,VWS V14.01,2013-04-18 21:17:00,
2013-04-18 14:22:00,56.5,21.1,29.99,WSW,241,8.1,8.3,25,0.00,,BKN200,0.00,VWS V14.01,2013-04-18 21:22:00,
2013-04-18 14:27:00,56.1,20.8,29.99,SW,232,3.6,5.8,25,0.00,,BKN200,0.00,VWS V14.01,2013-04-18 21:27:00,
2013-04-18 14:32:00,56.3,21.0,29.99,West,263,8.3,8.3,25,0.00,,BKN200,0.00,VWS V14.01,2013-04-18 21:32:00,
2013-04-18 14:37:00,56.1,20.8,29.99,WSW,244,5.4,8.7,25,0.00,,BKN200,0.00,VWS V14.01,2013-04-18 21:37:00,
2013-04-18 14:42:00,55.6,20.3,29.99,WSW,243,8.3,10.1,25,0.00,,BKN200,0.00,VWS V14.01,2013-04-18 21:42:00,
2013-04-18 14:47:00,55.4,20.2,29.99,WSW,241,8.3,8.3,25,0.00,,BKN200,0.00,VWS V14.01,2013-04-18 21:47:00,
2013-04-18 14:52:00,55.4,20.2,29.99,WSW,238,10.5,12.8,25,0.00,,BKN200,0.00,VWS V14.01,2013-04-18 21:52:00,
2013-04-18 14:57:00,55.9,20.6,29.99,WSW,237,8.3,8.3,25,0.00,,BKN200,0.00,VWS V14.01,2013-04-18 21:57:00,
2013-04-18 15:02:00,55.9,20.6,29.99,SW,233,10.1,10.1,25,0.00,,BKN060,0.00,VWS V14.01,2013-04-18 22:02:00,
2013-04-18 15:07:00,56.3,21.0,29.99,West,274,4.0,8.3,25,0.00,,BKN060,0.00,VWS V14.01,2013-04-18 22:07:00,
2013-04-18 15:12:00,56.7,21.3,29.99,WSW,257,5.8,6.3,25,0.00,,BKN060,0.00,VWS V14.01,2013-04-18 22:12:00,
2013-04-18 15:17:00,57.0,21.6,29.99,West,270,3.1,6.3,25,0.00,,BKN060,0.00,VWS V14.01,2013-04-18 22:17:00,
2013-04-18 15:22:00,57.6,22.0,29.99,WSW,237,10.1,13.2,25,0.00,,BKN060,0.00,VWS V14.01,2013-04-18 22:22:00,
2013-04-18 15:27:00,57.6,22.0,29.99,WSW,252,13.2,13.2,25,0.00,,BKN060,0.00,VWS V14.01,2013-04-18 22:27:00,
2013-04-18 15:32:00,57.4,21.9,29.99,West,271,4.0,9.6,25,0.00,,BKN060,0.00,VWS V14.01,2013-04-18 22:32:00,
2013-04-18 15:37:00,57.2,21.7,29.96,SSW,208,8.3,8.7,25,0.00,,BKN060,0.00,VWS V14.01,2013-04-18 22:37:00,
2013-04-18 15:42:00,57.0,21.6,29.96,SW,228,5.4,8.1,25,0.00,,BKN060,0.00,VWS V14.01,2013-04-18 22:42:00,
2013-04-18 15:47:00,57.0,21.6,29.96,WSW,249,8.3,10.5,25,0.00,,BKN060,0.00,VWS V14.01,2013-04-18 22:47:00,
2013-04-18 15:52:00,56.7,21.3,29.96,WSW,245,7.6,11.0,25,0.00,,BKN060,0.00,VWS V14.01,2013-04-18 22:52:00,
2013-04-18 15:57:00,56.5,21.1,29.96,WSW,243,8.1,8.1,25,0.00,,BKN060,0.00,VWS V14.01,2013-04-18 22:57:00,
2013-04-18 16:02:00,56.3,21.0,29.96,SW,232,5.8,8.1,25,0.00,,BKN060,0.00,VWS V14.01,2013-04-18 23:02:00,
2013-04-18 16:07:00,56.1,20.8,29.96,WSW,254,8.7,12.8,25,0.00,,BKN060,0.00,VWS V14.01,2013-04-18 23:07:00,
2013-04-18 16:12:00,56.1,20.8,29.96,WSW,250,7.6,8.3,25,0.00,,BKN060,0.00,VWS V14.01,2013-04-18 23:12:00,
2013-04-18 16:16:00,56.1,20.8,29.96,WSW,237,5.8,8.1,25,0.00,,BKN060,0.00,VWS V14.01,2013-04-18 23:16:00,
2013-04-18 16:21:00,55.9,20.6,29.96,SW,236,8.7,11.0,25,0.00,,BKN060,0.00,VWS V14.01,2013-04-18 23:21:00,
2013-04-18 16:26:00,55.8,20.5,29.96,SW,236,8.3,8.3,25,0.00,,BKN060,0.00,VWS V14.01,2013-04-18 23:26:00,
2013-04-18 16:31:00,55.6,20.3,29.96,SW,235,8.7,8.7,25,0.00,,BKN060,0.00,VWS V14.01,2013-04-18 23:31:00,
2013-04-18 16:36:00,55.2,21.0,29.96,WSW,238,7.6,8.7,26,0.00,,BKN060,0.00,VWS V14.01,2013-04-18 23:36:00,
2013-04-18 16:41:00,55.0,20.8,29.96,SW,230,8.3,10.5,26,0.00,,BKN060,0.00,VWS V14.01,2013-04-18 23:41:00,
2013-04-18 16:46:00,55.0,20.8,29.96,WSW,248,8.1,10.5,26,0.00,,BKN060,0.00,VWS V14.01,2013-04-18 23:46:00,
2013-04-18 16:51:00,54.9,20.6,29.96,WSW,253,8.1,8.3,26,0.00,,BKN060,0.00,VWS V14.01,2013-04-18 23:51:00,
2013-04-18 16:56:00,55.0,20.8,29.96,West,264,6.7,8.1,26,0.00,,BKN060,0.00,VWS V14.01,2013-04-18 23:56:00,
2013-04-18 17:01:00,55.0,20.8,29.96,WSW,241,5.4,8.1,26,0.00,,OVC065,0.00,VWS V14.01,2013-04-19 00:01:00,
2013-04-18 17:06:00,55.0,20.8,29.96,WSW,253,4.0,6.3,26,0.00,,OVC065,0.00,VWS V14.01,2013-04-19 00:06:00,
2013-04-18 17:11:00,55.0,20.8,29.96,West,274,8.1,10.1,26,0.00,,OVC065,0.00,VWS V14.01,2013-04-19 00:11:00,
2013-04-18 17:16:00,55.2,21.0,29.96,SW,218,6.3,8.7,26,0.00,,OVC065,0.00,VWS V14.01,2013-04-19 00:16:00,
2013-04-18 17:21:00,54.9,20.6,29.96,West,262,5.4,6.7,26,0.00,,OVC065,0.00,VWS V14.01,2013-04-19 00:21:00,
2013-04-18 17:26:00,54.5,20.3,29.96,West,259,5.4,11.0,26,0.00,,OVC065,0.00,VWS V14.01,2013-04-19 00:26:00,
2013-04-18 17:31:00,54.1,20.0,29.96,SSW,213,7.6,11.0,26,0.00,,OVC065,0.00,VWS V14.01,2013-04-19 00:31:00,
2013-04-18 17:36:00,53.8,19.7,29.96,SW,228,9.6,9.6,26,0.00,,OVC065,0.00,VWS V14.01,2013-04-19 00:36:00,
2013-04-18 17:41:00,53.8,19.7,29.96,West,264,9.6,9.6,26,0.00,,OVC065,0.00,VWS V14.01,2013-04-19 00:41:00,
2013-04-18 17:46:00,54.0,19.9,29.96,WSW,246,5.8,8.1,26,0.00,,OVC065,0.00,VWS V14.01,2013-04-19 00:46:00,
2013-04-18 17:51:00,53.6,19.6,29.96,WSW,255,7.6,7.6,26,0.00,,OVC065,0.00,VWS V14.01,2013-04-19 00:51:00,
2013-04-18 17:56:00,53.8,19.7,29.96,SW,232,8.7,9.2,26,0.00,,OVC065,0.00,VWS V14.01,2013-04-19 00:56:00,
2013-04-18 18:01:00,53.6,19.6,29.96,WSW,246,8.3,9.6,26,0.00,,OVC070,0.00,VWS V14.01,2013-04-19 01:01:00,
2013-04-18 18:06:00,53.4,20.3,29.96,SW,231,11.0,11.0,27,0.00,,OVC070,0.00,VWS V14.01,2013-04-19 01:06:00,
2013-04-18 18:11:00,53.1,20.0,29.96,WSW,240,6.7,8.3,27,0.00,,OVC070,0.00,VWS V14.01,2013-04-19 01:11:00,
2013-04-18 18:16:00,52.7,19.7,29.96,SW,234,8.7,8.7,27,0.00,,OVC070,0.00,VWS V14.01,2013-04-19 01:16:00,
2013-04-18 18:21:00,52.7,19.7,29.96,WSW,245,4.0,5.4,27,0.00,,OVC070,0.00,VWS V14.01,2013-04-19 01:21:00,
2013-04-18 18:26:00,52.5,19.5,29.93,West,262,5.8,7.6,27,0.00,,OVC070,0.00,VWS V14.01,2013-04-19 01:26:00,
2013-04-18 18:31:00,52.3,19.4,29.93,SW,233,5.4,5.8,27,0.00,,OVC070,0.00,VWS V14.01,2013-04-19 01:31:00,
2013-04-18 18:36:00,52.2,19.2,29.93,WSW,258,6.3,8.3,27,0.00,,OVC070,0.00,VWS V14.01,2013-04-19 01:36:00,
2013-04-18 18:41:00,52.2,19.2,29.93,SW,228,5.8,5.8,27,0.00,,OVC070,0.00,VWS V14.01,2013-04-19 01:41:00,
2013-04-18 18:46:00,52.0,19.1,29.93,WSW,250,8.3,8.3,27,0.00,,OVC070,0.00,VWS V14.01,2013-04-19 01:46:00,
2013-04-18 18:51:00,51.8,18.9,29.93,SW,231,6.3,10.5,27,0.00,,OVC070,0.00,VWS V14.01,2013-04-19 01:51:00,
2013-04-18 18:56:00,51.6,19.6,29.93,West,260,8.1,8.1,28,0.00,,OVC070,0.00,VWS V14.01,2013-04-19 01:56:00,
2013-04-18 19:01:00,51.4,19.4,29.93,SW,223,7.6,10.5,28,0.00,,OVC070,0.00,VWS V14.01,2013-04-19 02:01:00,
2013-04-18 19:06:00,51.3,19.3,29.93,SW,224,3.6,6.3,28,0.00,,OVC070,0.00,VWS V14.01,2013-04-19 02:06:00,
2013-04-18 19:11:00,51.1,19.1,29.93,WSW,256,5.8,7.6,28,0.00,,OVC070,0.00,VWS V14.01,2013-04-19 02:11:00,
2013-04-18 19:16:00,51.1,19.1,29.93,WSW,250,6.3,8.1,28,0.00,,OVC070,0.00,VWS V14.01,2013-04-19 02:16:00,
2013-04-18 19:21:00,50.9,19.0,29.93,SW,234,4.0,5.4,28,0.00,,OVC070,0.00,VWS V14.01,2013-04-19 02:21:00,
2013-04-18 19:26:00,50.7,18.8,29.93,SW,225,6.3,7.6,28,0.00,,OVC070,0.00,VWS V14.01,2013-04-19 02:26:00,
2013-04-18 19:31:00,50.7,19.6,29.93,WSW,244,7.6,8.1,29,0.00,,OVC070,0.00,VWS V14.01,2013-04-19 02:31:00,
2013-04-18 19:36:00,50.5,19.5,29.93,SW,220,8.1,8.1,29,0.00,,OVC070,0.00,VWS V14.01,2013-04-19 02:36:00,
2013-04-18 19:41:00,50.4,19.3,29.93,SSW,202,7.6,7.6,29,0.00,,OVC070,0.00,VWS V14.01,2013-04-19 02:41:00,
2013-04-18 19:46:00,50.2,19.2,29.93,WSW,245,8.3,8.3,29,0.00,,OVC070,0.00,VWS V14.01,2013-04-19 02:46:00,
2013-04-18 19:51:00,50.2,20.0,29.93,WSW,237,5.8,5.8,30,0.00,,OVC070,0.00,VWS V14.01,2013-04-19 02:51:00,
2013-04-18 19:56:00,50.0,19.8,29.93,WSW,245,8.3,8.3,30,0.00,,OVC070,0.00,VWS V14.01,2013-04-19 02:56:00,
2013-04-18 20:01:00,49.8,20.4,29.93,SW,233,6.3,6.3,31,0.00,,OVC080,0.00,VWS V14.01,2013-04-19 03:01:00,
2013-04-18 20:06:00,49.8,20.4,29.93,SW,231,7.6,7.6,31,0.00,,OVC080,0.00,VWS V14.01,2013-04-19 03:06:00,
2013-04-18 20:11:00,49.8,20.4,29.93,WSW,237,8.7,8.7,31,0.00,,OVC080,0.00,VWS V14.01,2013-04-19 03:11:00,
2013-04-18 20:16:00,49.6,20.3,29.93,WSW,238,7.6,7.6,31,0.00,,OVC080,0.00,VWS V14.01,2013-04-19 03:16:00,
2013-04-18 20:21:00,49.6,20.3,29.93,SW,229,6.3,8.3,31,0.00,,OVC080,0.00,VWS V14.01,2013-04-19 03:21:00,
2013-04-18 20:26:00,49.5,20.1,29.93,SW,220,8.3,8.7,31,0.00,,OVC080,0.00,VWS V14.01,2013-04-19 03:26:00,
2013-04-18 20:31:00,49.5,20.1,29.93,SW,225,6.3,10.5,31,0.00,,OVC080,0.00,VWS V14.01,2013-04-19 03:31:00,
2013-04-18 20:36:00,49.5,20.1,29.93,SSW,203,8.7,8.7,31,0.00,,OVC080,0.00,VWS V14.01,2013-04-19 03:36:00,
2013-04-18 20:41:00,49.5,20.1,29.93,SW,222,5.4,11.0,31,0.00,,OVC080,0.00,VWS V14.01,2013-04-19 03:41:00,
2013-04-18 20:46:00,49.3,19.2,29.93,WSW,239,8.7,8.7,30,0.00,,OVC080,0.00,VWS V14.01,2013-04-19 03:46:00,
2013-04-18 20:51:00,49.3,19.9,29.93,WSW,239,8.7,10.1,31,0.00,,OVC080,0.00,VWS V14.01,2013-04-19 03:51:00,
2013-04-18 20:56:00,49.3,19.9,29.90,SSW,212,5.4,6.3,31,0.00,,OVC080,0.00,VWS V14.01,2013-04-19 03:56:00,
2013-04-18 21:01:00,49.1,19.8,29.90,SW,218,5.4,5.4,31,0.00,,-RA,0.00,VWS V14.01,2013-04-19 04:01:00,
2013-04-18 21:06:00,49.1,19.8,29.90,WSW,240,4.5,5.8,31,0.00,,-RA,0.00,VWS V14.01,2013-04-19 04:06:00,
2013-04-18 21:11:00,49.1,19.8,29.90,SW,235,6.3,8.7,31,0.00,,-RA,0.00,VWS V14.01,2013-04-19 04:11:00,
2013-04-18 21:16:00,49.1,19.8,29.90,WSW,253,6.3,6.3,31,0.00,,-RA,0.00,VWS V14.01,2013-04-19 04:16:00,
2013-04-18 21:21:00,49.3,19.9,29.90,SW,227,6.3,10.1,31,0.00,,-RA,0.00,VWS V14.01,2013-04-19 04:21:00,
2013-04-18 21:26:00,49.1,19.8,29.90,SW,232,5.8,6.3,31,0.00,,-RA,0.00,VWS V14.01,2013-04-19 04:26:00,
2013-04-18 21:31:00,49.1,20.5,29.90,WSW,249,5.8,6.3,32,0.00,,-RA,0.00,VWS V14.01,2013-04-19 04:31:00,
2013-04-18 21:36:00,48.9,19.6,29.90,WSW,238,3.6,6.3,31,0.00,,-RA,0.00,VWS V14.01,2013-04-19 04:36:00,
2013-04-18 21:41:00,48.9,19.6,29.90,WSW,253,8.7,8.7,31,0.00,,-RA,0.00,VWS V14.01,2013-04-19 04:41:00,
2013-04-18 21:46:00,48.9,19.6,29.90,WSW,245,4.9,4.9,31,0.00,,-RA,0.00,VWS V14.01,2013-04-19 04:46:00,
2013-04-18 21:51:00,48.7,19.5,29.90,WSW,241,7.6,7.6,31,0.00,,-RA,0.00,VWS V14.01,2013-04-19 04:51:00,
2013-04-18 21:56:00,48.9,19.6,29.90,SW,236,4.0,4.5,31,0.00,,-RA,0.00,VWS V14.01,2013-04-19 04:56:00,
2013-04-18 22:01:00,48.7,19.5,29.90,SW,218,5.8,5.8,31,0.00,,OVC045,0.00,VWS V14.01,2013-04-19 05:01:00,
2013-04-18 22:06:00,48.7,19.5,29.90,SW,221,5.8,6.3,31,0.00,,OVC045,0.00,VWS V14.01,2013-04-19 05:06:00,
2013-04-18 22:11:00,48.7,19.5,29.90,SW,216,3.1,3.1,31,0.00,,OVC045,0.00,VWS V14.01,2013-04-19 05:11:00,
2013-04-18 22:16:00,48.6,19.3,29.90,SSW,199,2.7,4.0,31,0.00,,OVC045,0.00,VWS V14.01,2013-04-19 05:16:00,
2013-04-18 22:21:00,48.6,20.1,29.90,WSW,247,0.0,0.0,32,0.00,,OVC045,0.00,VWS V14.01,2013-04-19 05:21:00,
2013-04-18 22:26:00,48.4,19.9,29.90,SW,224,3.1,3.6,32,0.00,,OVC045,0.00,VWS V14.01,2013-04-19 05:26:00,
2013-04-18 22:31:00,48.4,20.6,29.90,SW,220,4.0,4.9,33,0.00,,OVC045,0.00,VWS V14.01,2013-04-19 05:31:00,
2013-04-18 22:36:00,48.4,20.6,29.90,SW,227,3.1,3.1,33,0.00,,OVC045,0.00,VWS V14.01,2013-04-19 05:36:00,
2013-04-18 22:41:00,48.4,20.6,29.90,WSW,241,4.9,4.9,33,0.00,,OVC045,0.00,VWS V14.01,2013-04-19 05:41:00,
2013-04-18 22:46:00,48.4,20.6,29.90,WSW,253,2.7,4.0,33,0.00,,OVC045,0.00,VWS V14.01,2013-04-19 05:46:00,
2013-04-18 22:51:00,48.4,21.3,29.90,SW,224,2.7,4.0,34,0.00,,OVC045,0.00,VWS V14.01,2013-04-19 05:51:00,
2013-04-18 22:56:00,48.2,21.2,29.87,SW,222,6.3,6.3,34,0.00,,OVC045,0.00,VWS V14.01,2013-04-19 05:56:00,
2013-04-18 23:01:00,48.4,22.0,29.87,WSW,241,4.0,6.3,35,0.00,,OVC070,0.00,VWS V14.01,2013-04-19 06:01:00,
2013-04-18 23:06:00,48.4,22.0,29.87,SSW,203,3.6,4.0,35,0.00,,OVC070,0.00,VWS V14.01,2013-04-19 06:06:00,
2013-04-18 23:11:00,48.2,21.9,29.87,WSW,247,5.4,5.8,35,0.00,,OVC070,0.00,VWS V14.01,2013-04-19 06:11:00,
2013-04-18 23:16:00,48.2,21.9,29.87,West,270,4.9,4.9,35,0.00,,OVC070,0.00,VWS V14.01,2013-04-19 06:16:00,
2013-04-18 23:21:00,48.0,21.7,29.87,WSW,255,2.7,2.7,35,0.00,,OVC070,0.00,VWS V14.01,2013-04-19 06:21:00,
2013-04-18 23:26:00,48.0,22.4,29.87,SW,219,3.6,3.6,36,0.00,,OVC070,0.00,VWS V14.01,2013-04-19 06:26:00,
2013-04-18 23:31:00,47.8,22.2,29.87,WSW,251,3.6,4.0,36,0.00,,OVC070,0.00,VWS V14.01,2013-04-19 06:31:00,
2013-04-18 23:36:00,47.8,22.2,29.87,SW,229,3.6,3.6,36,0.00,,OVC070,0.00,VWS V14.01,2013-04-19 06:36:00,
2013-04-18 23:41:00,48.0,22.4,29.87,WSW,246,8.3,8.3,36,0.00,,OVC070,0.00,VWS V14.01,2013-04-19 06:41:00,
2013-04-18 23:45:00,48.0,23.0,29.87,West,264,6.3,6.3,37,0.00,,OVC070,0.00,VWS V14.01,2013-04-19 06:45:00,
2013-04-18 23:50:00,48.0,23.0,29.87,SW,223,8.3,8.3,37,0.00,,OVC070,0.00,VWS V14.01,2013-04-19 06:50:00,
2013-04-18 23:55:00,47.8,22.9,29.87,SW,219,8.7,8.7,37,0.00,,OVC070,0.00,VWS V14.01,2013-04-19 06:55:00,